Weather History for Guymon, OK

Change the Weather History Date:

Monday, September 10, 2012

  Actual Average Record
Temperature  
Mean Temperature 73 °F 73 °F  
Max Temperature 92 °F 88 °F 99 °F (2000)
Min Temperature 53 °F 59 °F 47 °F (2007)
Degree Days  
Heating Degree Days 0 0  
Month to date heating degree days 0 0  
Since 1 July heating degree days 0 1  
Cooling Degree Days 8 8  
Month to date cooling degree days 116 97  
Year to date cooling degree days 1830 1346  
Growing Degree Days 22 (Base 50)    
Moisture  
Dew Point 43 °F    
Average Humidity 40    
Maximum Humidity 59    
Minimum Humidity 21    
Precipitation  
Precipitation 0.00 in 0.07 in 1.21 in (2002)
Month to date precipitation T 0.64  
Year to date precipitation 9.02 15.41  
Snow  
Snow 0.00 in - - ()
Month to date snowfall 0.0  
Since 1 July snowfall 0.0  
Since 1 September snowfall 0.0  
Snow Depth 0.00 in    
Sea Level Pressure  
Sea Level Pressure 29.92 in    
Wind  
Wind Speed 15 mph (SSW)    
Max Wind Speed 26 mph    
Max Gust Speed 33 mph    
Visibility 10 miles    
Events      
T = Trace of Precipitation, MM = Missing Value Source: NWS Daily Summary

Daily Weather History Graph

Daily Weather History Graph

Search for Another Location

Airport:

Trip Planner

Search our weather history database for the weather conditions in past years. The results will help you decide how hot, cold, wet, or windy it might be!

Date:

Astronomy

Sep. 10, 2012 Rise Set
Actual Time 7:24 AM CDT 8:00 PM CDT
Civil Twilight 6:58 AM CDT 8:26 PM CDT
Nautical Twilight 6:27 AM CDT 8:56 PM CDT
Astronomical Twilight 5:56 AM CDT 9:28 PM CDT
Moon 1:54 AM CDT (9/10) 4:25 PM CDT (9/10)
Length of Visible Light 13h 27m
Length of Day
12h 35m
Waning Crescent, 30% of the Moon is Illuminated
Sep 10
Waning Crescent
Sep 15
New
Sep 22
First Quarter
Sep 29
Full
Oct 8
Last Quarter

Hourly Weather History & Observations

Time (CDT) Temp. Dew Point Humidity Pressure Visibility Wind Dir Wind Speed Gust Speed Precip Events Conditions
12:53 AM 66.0 °F 39.9 °F 38% 30.01 in 10.0 mi SSW 11.5 mph - N/A   Clear
1:53 AM 64.9 °F 37.9 °F 37% 30.01 in 10.0 mi South 10.4 mph - N/A   Clear
2:53 AM 64.0 °F 37.9 °F 38% 30.00 in 10.0 mi SSW 10.4 mph - N/A   Clear
3:53 AM 60.1 °F 39.0 °F 46% 30.01 in 10.0 mi SSW 8.1 mph - N/A   Clear
4:53 AM 60.1 °F 39.9 °F 47% 30.00 in 10.0 mi SW 12.7 mph - N/A   Clear
5:53 AM 57.9 °F 39.9 °F 51% 29.99 in 10.0 mi SSW 11.5 mph - N/A   Clear
6:53 AM 55.9 °F 39.9 °F 55% 29.99 in 10.0 mi South 6.9 mph - N/A   Clear
7:53 AM 53.1 °F 39.9 °F 61% 30.02 in 10.0 mi West 4.6 mph - N/A   Clear
8:53 AM 64.0 °F 41.0 °F 43% 30.02 in 10.0 mi SSW 11.5 mph - N/A   Clear
9:53 AM 72.0 °F 44.1 °F 37% 30.00 in 10.0 mi SSW 10.4 mph - N/A   Clear
10:53 AM 81.0 °F 46.0 °F 29% 29.98 in 10.0 mi South 15.0 mph - N/A   Clear
11:53 AM 84.0 °F 48.0 °F 28% 29.96 in 10.0 mi SSW 19.6 mph 25.3 mph N/A   Clear
12:53 PM 87.1 °F 44.1 °F 22% 29.92 in 10.0 mi SSW 18.4 mph 27.6 mph N/A   Clear
2:53 PM 89.1 °F 46.9 °F 23% 29.86 in 10.0 mi SSW 23.0 mph 32.2 mph N/A   Clear
3:53 PM 90.0 °F 46.9 °F 23% 29.85 in 9.0 mi SSW 24.2 mph 33.4 mph N/A   Partly Cloudy
4:53 PM 91.0 °F 46.0 °F 21% 29.82 in 10.0 mi SSW 23.0 mph 32.2 mph N/A   Clear
5:53 PM 90.0 °F 46.0 °F 22% 29.81 in 10.0 mi South 21.9 mph 28.8 mph N/A   Clear
6:53 PM 88.0 °F 45.0 °F 22% 29.82 in 10.0 mi South 17.3 mph 26.5 mph N/A   Clear
7:53 PM 84.0 °F 46.0 °F 26% 29.83 in 10.0 mi South 13.8 mph - N/A   Clear
8:53 PM 80.1 °F 46.0 °F 30% 29.82 in 10.0 mi SSE 12.7 mph - N/A   Clear
9:53 PM 78.1 °F 44.1 °F 30% 29.83 in 10.0 mi SSE 15.0 mph - N/A   Clear
10:53 PM 73.9 °F 43.0 °F 33% 29.83 in 10.0 mi South 12.7 mph - N/A   Clear
11:53 PM 73.0 °F 41.0 °F 31% 29.84 in 10.0 mi South 16.1 mph 23.0 mph N/A   Clear